TimeMDT,TemperatureF,Dew PointF,Humidity,Sea Level PressureIn,VisibilityMPH,Wind Direction,Wind SpeedMPH,Gust SpeedMPH,PrecipitationIn,Events,Conditions,WindDirDegrees,DateUTC
12:30 AM,53.6,51.8,94,29.57,10.0,West,18.4,24.2,N/A,,Overcast,280,2013-05-20 06:30:00
12:47 AM,53.6,51.8,94,29.57,10.0,WNW,19.6,25.3,N/A,,Overcast,290,2013-05-20 06:47:00
12:55 AM,54.0,51.1,90,29.54,10.0,WNW,17.3,25.3,0.00,Rain,Light Rain,290,2013-05-20 06:55:00
1:55 AM,53.1,51.1,93,29.53,7.0,WNW,19.6,25.3,0.01,Rain,Light Rain,300,2013-05-20 07:55:00
2:28 AM,51.8,50.0,94,29.55,10.0,WNW,18.4,28.8,0.00,,Overcast,300,2013-05-20 08:28:00
2:35 AM,51.8,50.0,94,29.55,10.0,WNW,15.0,23.0,0.00,,Overcast,290,2013-05-20 08:35:00
2:47 AM,51.8,51.8,100,29.55,9.0,WNW,17.3,-,0.01,Rain,Light Rain,290,2013-05-20 08:47:00
2:55 AM,52.0,50.0,93,29.52,6.0,WNW,19.6,24.2,0.01,Rain,Light Rain,290,2013-05-20 08:55:00
3:26 AM,51.8,50.0,94,29.54,10.0,WNW,16.1,-,0.00,Rain,Light Rain,290,2013-05-20 09:26:00
3:55 AM,52.0,48.9,89,29.51,10.0,WNW,19.6,-,0.00,,Overcast,290,2013-05-20 09:55:00
4:55 AM,52.0,50.0,93,29.50,10.0,WNW,15.0,-,N/A,,Overcast,290,2013-05-20 10:55:00
5:29 AM,51.8,50.0,94,29.51,10.0,WNW,13.8,-,N/A,,Overcast,290,2013-05-20 11:29:00
5:55 AM,52.0,50.0,93,29.49,10.0,WNW,15.0,-,N/A,,Overcast,300,2013-05-20 11:55:00
6:55 AM,53.1,50.0,89,29.49,10.0,NW,20.7,26.5,N/A,,Overcast,310,2013-05-20 12:55:00
7:27 AM,53.6,50.0,88,29.51,10.0,NW,17.3,-,N/A,,Overcast,320,2013-05-20 13:27:00
7:55 AM,54.0,53.1,97,29.50,6.0,NNW,16.1,-,N/A,,Overcast,330,2013-05-20 13:55:00
8:42 AM,59.0,55.4,88,29.53,10.0,North,17.3,-,0.00,,Overcast,10,2013-05-20 14:42:00
8:55 AM,55.9,53.1,90,29.52,4.0,North,20.7,28.8,0.00,Rain,Light Rain,350,2013-05-20 14:55:00
9:24 AM,55.4,53.6,94,29.55,4.0,NNW,18.4,24.2,0.00,Rain,Light Rain,340,2013-05-20 15:24:00
9:55 AM,57.0,53.1,87,29.54,10.0,NNW,16.1,23.0,0.01,,Overcast,340,2013-05-20 15:55:00
10:16 AM,55.4,53.6,94,29.56,8.0,NNW,16.1,-,0.00,Rain,Light Rain,340,2013-05-20 16:16:00
10:23 AM,55.4,53.6,94,29.57,6.0,North,20.7,27.6,0.00,Rain,Light Rain,350,2013-05-20 16:23:00
10:31 AM,55.4,53.6,94,29.57,10.0,NNW,18.4,27.6,0.00,Rain,Light Rain,340,2013-05-20 16:31:00
10:52 AM,55.4,51.8,88,29.58,10.0,NNW,21.9,26.5,0.00,,Overcast,340,2013-05-20 16:52:00
10:55 AM,55.0,52.0,89,29.56,10.0,NNW,18.4,26.5,0.00,Rain,Light Rain,340,2013-05-20 16:55:00
11:53 AM,55.4,51.8,88,29.59,10.0,NNW,21.9,32.2,0.00,,Overcast,340,2013-05-20 17:53:00
11:55 AM,55.0,52.0,89,29.58,10.0,NNW,27.6,33.4,0.00,,Overcast,340,2013-05-20 17:55:00
12:23 PM,53.6,51.8,94,29.60,4.0,NNW,21.9,29.9,0.00,Rain,Rain,330,2013-05-20 18:23:00
12:34 PM,53.6,51.8,94,29.61,2.5,NNW,20.7,29.9,0.04,Rain,Rain,330,2013-05-20 18:34:00
12:43 PM,53.6,51.8,94,29.61,4.0,NNW,24.2,27.6,0.08,Rain,Rain,330,2013-05-20 18:43:00
12:55 PM,54.0,52.0,93,29.60,8.0,NNW,21.9,31.1,0.09,Rain,Light Rain,340,2013-05-20 18:55:00
1:09 PM,53.6,51.8,94,29.62,9.0,NNW,25.3,32.2,0.01,Rain,Light Rain,340,2013-05-20 19:09:00
1:18 PM,53.6,51.8,94,29.62,10.0,NNW,23.0,31.1,0.02,Rain,Light Rain,340,2013-05-20 19:18:00
1:55 PM,55.0,53.1,93,29.62,6.0,NW,20.7,31.1,0.05,Rain,Rain,320,2013-05-20 19:55:00
2:03 PM,55.4,53.6,94,29.63,8.0,NNW,18.4,32.2,0.01,Rain,Light Rain,330,2013-05-20 20:03:00
2:31 PM,55.4,55.4,100,29.63,10.0,NW,27.6,35.7,0.01,,Overcast,320,2013-05-20 20:31:00
2:55 PM,55.9,54.0,93,29.62,10.0,NNW,29.9,38.0,0.01,Rain,Light Rain,330,2013-05-20 20:55:00
3:37 PM,55.4,53.6,94,29.65,8.0,NW,25.3,32.2,0.00,Rain,Light Rain,320,2013-05-20 21:37:00
3:55 PM,55.0,54.0,96,29.64,10.0,NW,27.6,38.0,0.00,Rain,Light Rain,320,2013-05-20 21:55:00
4:55 PM,55.0,54.0,96,29.65,10.0,NW,24.2,35.7,0.00,,Overcast,320,2013-05-20 22:55:00
5:55 PM,54.0,50.0,86,29.67,10.0,NW,25.3,35.7,N/A,,Overcast,320,2013-05-20 23:55:00
6:55 PM,53.1,48.9,86,29.68,10.0,NW,21.9,33.4,0.00,Rain,Light Rain,320,2013-05-21 00:55:00
7:55 PM,52.0,48.0,86,29.69,10.0,NW,20.7,35.7,0.00,Rain,Light Rain,320,2013-05-21 01:55:00
8:55 PM,51.1,48.0,89,29.70,7.0,NW,23.0,29.9,0.00,Rain,Light Rain,310,2013-05-21 02:55:00
9:03 PM,51.8,48.2,88,29.71,10.0,NW,20.7,31.1,0.00,Rain,Light Rain,310,2013-05-21 03:03:00
9:55 PM,50.0,50.0,100,29.71,9.0,NNW,23.0,32.2,0.01,Rain,Light Rain,330,2013-05-21 03:55:00
10:55 PM,48.9,48.0,97,29.73,10.0,NNW,19.6,31.1,0.00,,Overcast,330,2013-05-21 04:55:00
11:12 PM,50.0,48.2,94,29.73,10.0,NNW,23.0,32.2,0.00,Rain,Light Rain,330,2013-05-21 05:12:00
11:55 PM,48.9,46.0,90,29.73,10.0,NNW,24.2,32.2,0.00,,Overcast,330,2013-05-21 05:55:00